Location: Morlupo
(42.1333°N, 12.5000°E)
Time: 16:08:35
(UTC+00:00)

Cosmos 1125 Rocket - Pass Details

Date: 18 September 2020
Orbit: 758 x 780 km, 74.0° (Epoch: 25 October)

Event Time Altitude Azimuth Distance (km) Brightness Sun altitude
Rises 18:55:27 0° 183° (S) 3,239 6.6 -19.3°
Reaches altitude 10° 18:57:52 10° 179° (S) 2,318 5.8 -19.7°
Maximum altitude 19:02:57 51° 104° (ESE) 978 3.6 -20.5°
Drops below altitude 10° 19:08:05 10° 30° (NNE) 2,340 5.9 -21.4°
Sets 19:10:32 0° 25° (NNE) 3,272 6.8 -21.8°
